Find Kosmos-2404

NORAD ID: 28114 Int'l Des: 2003-056 Owner: KVR/IACG Country: RU Constellation: GLONASS operational
MEOCIRCULAR

Aktuelle Ansicht

3D-Globus wird geladen...

Über Kosmos-2404

Beschreibung wird geladen...

Nächste Überflüge

Passes for default location (London). Set your location on the main map for personalized predictions.

Höhenverlauf

Loading altitude history...

Zweizeiliger Elementsatz

1 28114U 03056C 26150.31252057 -.00000062 00000-0 00000+0 0 9997
2 28114 64.2634 62.8735 0060841 62.4014 117.1025 2.13104908174861
Epoch: 30. Mai 2026 • Age: 22 hours

Aktueller Status

Höhe 19137.7 km
Geschwindigkeit 3.95 km/s
Subsatellitenpunkt 22.04°N, 95.82°W
Startdatum 10. Dez. 2003
Alter 22.4 years
Typ other

Technische Details

Klassifizierung Payload
Masse 1415.00 kg
Trockenmasse 1200.00 kg
Gesamtmasse 1415.00 kg
Länge 4.00 m
Durchmesser 1.50 m
Spannweite 7.80 m
Form Cyl + Ant + 2 Pan
Hersteller NPOPMR
Bus-Typ Uragan
Phasenstatus In Orbit
Besitzer/Staat KVR/IACG/RU

Most Searched